User: anonymous   Login
Location: Albany
(35.0000°S, 118.0000°E)
Time: 16:20:56
(UTC-04:00)
Language:

SJ-6B - Orbit

View from above orbital plane
View from above orbital plane
View from above satellite
View from above satellite

Ground track
Ground track

The orbit data is extracted from the following two-line orbital elements,

1 28415U 04035C   16175.95799163 +.00000236 +00000-0 +20488-4 0  9998
2 28415 097.7762 196.6389 0051415 255.9351 103.6157 15.05742457644667
Epoch (UTC): 23 June 2016 22:59:30
Eccentricity: 0.0051415
inclination: 97.7762°
perigee height: 513 km
apogee height: 585 km
right ascension of ascending node: 196.6389°
argument of perigee: 255.9351°
revolutions per day: 15.05742457
mean anomaly at epoch: 103.6157°
orbit number at epoch: 64466

The dashed part of the orbit path shows where the satellite is in the earth's shadow,  

DLR